Oceanside, CA

3:48 PM PDT on September 26, 2017 (GMT -0700)
Oceanside Municipal

Weather History for KOKB - March, 2013

Change the Weather History Date:

Wednesday, March 13, 2013

  Actual Average Record
Temperature  
Mean Temperature 56 °F 55 °F  
Max Temperature 64 °F 65 °F 92 °F (2015)
Min Temperature 48 °F 46 °F 37 °F (2006)
Degree Days  
Heating Degree Days 9 10  
Month to date heating degree days 97 130  
Since 1 July heating degree days 1495 1538  
Cooling Degree Days 0 0  
Month to date cooling degree days 0 0  
Year to date cooling degree days 0 0  
Growing Degree Days 6 (Base 50)    
Moisture  
Dew Point 52 °F    
Average Humidity 86    
Maximum Humidity 100    
Minimum Humidity 72    
Precipitation  
Precipitation 0.00 in 0.05 in 0.02 in (2006)
Month to date precipitation 0.10 1.52  
Year to date precipitation 1.74 7.24  
Since 1 July precipitation 5.58  
Snow  
Snow 0.00 in - - ()
Month to date snowfall 0.0  
Year to date snowfall 0.0  
Snow Depth 0.00 in    
Sea Level Pressure  
Sea Level Pressure 30.06 in    
Wind  
Wind Speed 3 mph (WSW)    
Max Wind Speed 13 mph    
Max Gust Speed -    
Visibility 3 miles    
Events Fog    
T = Trace of Precipitation, MM = Missing Value Source: NWS Daily Summary

Daily Weather History Graph

Daily Weather History Graph

Search for Another Location

Airport or City:

Trip Planner

Search our weather history database for the weather conditions in past years. The results will help you decide how hot, cold, wet, or windy it might be!

Date:

Astronomy

Mar. 13, 2013 Rise Set
Actual Time 7:01 AM PDT 6:56 PM PDT
Civil Twilight 6:37 AM PDT 7:20 PM PDT
Nautical Twilight 6:08 AM PDT 7:49 PM PDT
Astronomical Twilight 5:39 AM PDT 8:18 PM PDT
Moon 7:52 AM PDT (3/13) 9:07 PM PDT (3/13)
Length of Visible Light 12h 43m
Length of Day
11h 54m
Waxing Crescent, 4% of the Moon is Illuminated
Mar 13
Waxing Crescent
Mar 19
First Quarter
Mar 27
Full
Apr 2
Last Quarter
Apr 10
New

Hourly Weather History & Observations

Time (PDT) Temp. Dew Point Humidity Pressure Visibility Wind Dir Wind Speed Gust Speed Precip Events Conditions
12:52 AM 54.0 °F 53.1 °F 97% 30.08 in 0.2 mi Calm Calm - N/A Fog Fog
1:52 AM 54.0 °F 53.1 °F 97% 30.07 in 0.2 mi Calm Calm - N/A Fog Fog
2:52 AM 52.0 °F 51.1 °F 97% 30.05 in 0.2 mi Calm Calm - N/A Fog Fog
3:52 AM 50.0 °F 48.9 °F 96% 30.04 in 0.2 mi Calm Calm - N/A Fog Fog
4:52 AM 48.9 °F 48.0 °F 97% 30.06 in 0.2 mi Calm Calm - N/A Fog Fog
5:52 AM 50.0 °F 48.9 °F 96% 30.06 in 0.2 mi Calm Calm - N/A Fog Fog
6:52 AM 48.0 °F 46.9 °F 96% 30.07 in 0.2 mi Calm Calm - N/A Fog Fog
7:52 AM 48.0 °F 46.9 °F 96% 30.08 in 0.2 mi Calm Calm - N/A Fog Fog
8:52 AM 48.9 °F 48.9 °F 100% 30.09 in 0.5 mi Calm Calm - N/A Fog Fog
8:58 AM 50.0 °F 48.2 °F 94% 30.09 in 2.5 mi Calm Calm - N/A   Mostly Cloudy
9:05 AM 51.8 °F 48.2 °F 88% 30.09 in 6.0 mi Calm Calm - N/A   Scattered Clouds
9:52 AM 57.9 °F 52.0 °F 81% 30.10 in 10.0 mi SW 4.6 mph - N/A   Clear
10:52 AM 60.1 °F 52.0 °F 75% 30.11 in 9.0 mi West 4.6 mph - N/A   Clear
11:52 AM 61.0 °F 53.1 °F 75% 30.10 in 9.0 mi WSW 9.2 mph - N/A   Clear
12:52 PM 62.1 °F 53.1 °F 72% 30.08 in 7.0 mi West 8.1 mph - N/A   Clear
1:52 PM 63.0 °F 54.0 °F 72% 30.06 in 6.0 mi SW 8.1 mph - N/A   Haze
2:52 PM 63.0 °F 54.0 °F 72% 30.04 in 5.0 mi WSW 8.1 mph - N/A   Haze
3:52 PM 60.1 °F 53.1 °F 78% 30.04 in 4.0 mi WSW 9.2 mph - N/A   Haze
4:21 PM 57.2 °F 53.6 °F 88% 30.03 in 3.0 mi WSW 8.1 mph - N/A   Haze
4:40 PM 57.2 °F 53.6 °F 88% 30.03 in 3.0 mi SW 10.4 mph - N/A   Mostly Cloudy
4:52 PM 57.0 °F 53.1 °F 87% 30.04 in 3.0 mi WSW 10.4 mph - N/A   Overcast
5:32 PM 55.4 °F 53.6 °F 94% 30.04 in 2.5 mi SW 6.9 mph - N/A   Overcast
5:52 PM 55.9 °F 53.1 °F 90% 30.04 in 2.5 mi SW 6.9 mph - N/A   Overcast
6:52 PM 55.0 °F 52.0 °F 89% 30.05 in 2.5 mi Calm Calm - N/A   Overcast
6:59 PM 53.6 °F 51.8 °F 94% 30.05 in 2.5 mi West 4.6 mph - N/A   Overcast
7:13 PM 53.6 °F 51.8 °F 94% 30.05 in 3.0 mi Calm Calm - N/A   Mostly Cloudy
7:29 PM 53.6 °F 51.8 °F 94% 30.05 in 3.0 mi Calm Calm - N/A   Scattered Clouds
7:42 PM 53.6 °F 51.8 °F 94% 30.05 in 3.0 mi Calm Calm - N/A   Mostly Cloudy
7:52 PM 54.0 °F 51.1 °F 90% 30.06 in 4.0 mi Calm Calm - N/A   Mostly Cloudy
8:52 PM 54.0 °F 52.0 °F 93% 30.07 in 3.0 mi WSW 3.5 mph - N/A   Overcast
8:59 PM 53.6 °F 51.8 °F 94% 30.08 in 2.5 mi Calm Calm - N/A   Overcast
9:52 PM 54.0 °F 52.0 °F 93% 30.08 in 2.0 mi East 3.5 mph - N/A   Overcast
10:12 PM 53.6 °F 51.8 °F 94% 30.07 in 1.8 mi East 4.6 mph - N/A   Overcast
10:36 PM 53.6 °F 51.8 °F 94% 30.07 in 2.0 mi Calm Calm - N/A   Overcast
10:52 PM 54.0 °F 52.0 °F 93% 30.07 in 1.8 mi Calm Calm - N/A   Overcast
11:39 PM 53.6 °F 51.8 °F 94% 30.08 in 0.8 mi WSW 8.1 mph - N/A   Overcast
11:52 PM 53.1 °F 52.0 °F 96% 30.08 in 0.5 mi Calm Calm - N/A Fog Fog